{"data":{"norad_id":65887,"intl_designator":"2025-224F","name":"STARLINK-35332","alt_names":[],"object_type":"PAYLOAD","status":"ACTIVE","operator":null,"country":"US","launch_date":"2025-10-07","launch_site_code":"AFETR","launch_vehicle":null,"mission":null,"orbit_class":"UNKNOWN","rcs_meters":null,"size_class":null,"mass_kg":null,"dimensions":null,"purposes":["comms"],"wikipedia_slug":null,"has_3d_model":false,"image_url":null,"decayed_at":null,"tle_current":{"epoch":"2026-05-25T01:21:28.158624Z","epoch_age_seconds":66994,"freshness":"FRESH","line1":"1 65887U 25224F   26145.05657591  .00040277  00000+0  11966-2 0  9999","line2":"2 65887  53.1596  15.4158 0001154  91.5890 268.5244 15.34404780 36569","mean_motion":15.3440478,"eccentricity":0.0001154,"inclination_deg":53.1596,"raan_deg":15.4158,"arg_perigee_deg":91.589,"mean_anomaly_deg":268.5244,"bstar":0.0011966,"rev_number":3656,"period_min":93.847465725439,"perigee_km":461.89960175243,"apogee_km":463.47846440087,"semimajor_km":6840.8260330766,"source":"CELESTRAK","updated_at":"2026-05-25T13:38:20.979761Z"}}}